Погода в Лоскутово

Россия / Томская область     56°22′31″N   85°06′24″E
темп.,
°C
ветер,
м/с
пор.,
м/с
влажн.,
%
обл.,
%
осадки,
мм/ч
давл.,
гПа
погр.,
м
6 марта, сб
сб601:00−4юз71693100 1.2 10121300
04:00−5юз61491100 0.3 10121000
07:00−5ююз71491100 0.5 1013932
10:00−6ююз71393100 0.9 1011906
13:00−5ююз81490100 1.7 10091137
16:00−5ююз71393100 1.3 10081080
19:00−5ююз71690100 2.4 10061145
22:00−4ююз71688100 0.2 10061118
7 марта, вс
вс701:00−4зюз51386100 1.3 10071064
04:00−8юз4139081 0.0 1008576
07:00−10юз4139389 0.0 1011561
10:00−11зюз5128897 0.0 1013672
13:00−8зюз6118463 0.0 1015931
16:00−6зюз6108184 0.1 10171293
19:00−9зюз4128798 0.1 1018659
22:00−12зюз389469 0.0 1021220
8 марта, пн
пн801:00−15ююз239864 0.0 102357
04:00−16ююв239893 0.0 102341
07:00−14ююв379296 0.0 1021175
10:00−10ююв5127999 0.0 1017421
13:00−4ю6139199 0.0 1012613
16:000ю61383100 0.0 1007991
19:000ююз71582100 0.0 1003915
22:00−2ююз71587100 0.0 10021089
9 марта, вт
вт901:00−2юз81692100 0.3 10051464
04:00−10зюз61489100 0.2 1010834
07:00−11зюз61291100 0.3 1015767
10:00−11зюз61290100 0.1 1018784
13:00−10зюз61087100 0.2 1021822
16:00−8юз5985100 0.1 1022842
19:00−11ююз379199 0.1 1023185
22:00−13ю399354 0.0 1021220
10 марта, ср
ср1001:00−12ю4109374 0.0 1019327
04:00−10ю51291100 0.0 1016449
07:00−12ююз5139096 0.0 1014357
10:00−10ююз5128993 0.0 1013483
13:00−6юз5108669 0.0 1013713
16:00−5юз598482 0.0 1014775
19:00−7юз389188 0.0 1014320
22:00−10ююз2396100 0.0 101550